When you browse on this site, cookies collect data to enhance your experience and personalize the content and advertising you see.
Visit our Privacy Policy to learn more. By continuing to use the site, you agree to this use of cookies and data.
  • In Hungary
  • List of Countries
  • For 7 days
  • Water Temperature
  • Satellite Maps
  • Weather Map
  • News
  • Weather Widgets
  • user-avatar
    Login

    Hourly Weather Drwalewice

    Today, 23 May, Thursday

    Time Temperature Precipitation Wind Pressure Humidity
    00:00 +10°C° 0.1 mm 5 mps 753 mmHg 93%
    01:00 +11°C° 0 mm 4 mps 753 mmHg 93%
    02:00 +10°C° 0.1 mm 4 mps 753 mmHg 92%
    03:00 +10°C° 0.1 mm 4 mps 753 mmHg 92%
    04:00 +10°C° 0.1 mm 4 mps 754 mmHg 92%
    05:00 +10°C° 0.1 mm 4 mps 754 mmHg 91%
    06:00 +10°C° 0.1 mm 4 mps 754 mmHg 90%
    07:00 +10°C° 0.1 mm 4 mps 754 mmHg 89%
    08:00 +10°C° 0 mm 4 mps 754 mmHg 86%
    09:00 +11°C° 0 mm 4 mps 755 mmHg 83%
    10:00 +11°C° 0 mm 4 mps 755 mmHg 80%
    11:00 +13°C° 0 mm 3 mps 755 mmHg 73%
    12:00 +14°C° 0 mm 3 mps 755 mmHg 66%
    13:00 +17°C° 0 mm 3 mps 755 mmHg 59%
    14:00 +17°C° 0 mm 3 mps 755 mmHg 57%
    15:00 +18°C° 0 mm 2 mps 754 mmHg 55%
    16:00 +19°C° 0 mm 2 mps 754 mmHg 53%
    17:00 +18°C° 0 mm 2 mps 754 mmHg 58%
    18:00 +17°C° 0 mm 2 mps 754 mmHg 62%
    19:00 +16°C° 0 mm 1 mps 754 mmHg 67%
    20:00 +14°C° 0 mm 1 mps 754 mmHg 71%
    21:00 +13°C° 0 mm 1 mps 755 mmHg 76%
    22:00 +11°C° 0 mm 1 mps 755 mmHg 80%
    23:00 +10°C° 0 mm 1 mps 755 mmHg 81%

    Tomorrow, 24 May, Friday

    Time Temperature Precipitation Wind Pressure Humidity
    00:00 +10°C° 0 mm 1 mps 755 mmHg 81%
    01:00 +8°C° 0 mm 0 mps 755 mmHg 81%
    02:00 +8°C° 0 mm 0 mps 755 mmHg 81%
    03:00 +8°C° 0 mm 1 mps 755 mmHg 80%
    04:00 +8°C° 0 mm 1 mps 754 mmHg 80%
    05:00 +10°C° 0 mm 1 mps 754 mmHg 73%
    06:00 +12°C° 0 mm 1 mps 754 mmHg 67%
    07:00 +14°C° 0 mm 1 mps 754 mmHg 61%
    08:00 +18°C° 0 mm 1 mps 754 mmHg 54%
    09:00 +20°C° 0 mm 1 mps 754 mmHg 48%
    10:00 +22°C° 0 mm 1 mps 754 mmHg 41%
    11:00 +23°C° 0 mm 1 mps 754 mmHg 39%
    12:00 +22°C° 0 mm 0 mps 753 mmHg 36%
    13:00 +22°C° 0 mm 0 mps 753 mmHg 33%
    14:00 +24°C° 0 mm 1 mps 752 mmHg 34%
    15:00 +24°C° 0 mm 1 mps 752 mmHg 34%
    16:00 +24°C° 0 mm 1 mps 752 mmHg 35%
    17:00 +23°C° 0 mm 1 mps 751 mmHg 42%
    18:00 +21°C° 0 mm 1 mps 751 mmHg 50%
    19:00 +20°C° 0 mm 1 mps 751 mmHg 57%
    20:00 +18°C° 0 mm 1 mps 751 mmHg 62%
    21:00 +16°C° 0 mm 1 mps 751 mmHg 67%
    22:00 +14°C° 0 mm 1 mps 751 mmHg 72%
    23:00 +14°C° 0 mm 2 mps 751 mmHg 76%

    Day after tomorrow, 25 May, Saturday

    Time Temperature Precipitation Wind Pressure Humidity
    00:00 +14°C° 0 mm 2 mps 751 mmHg 80%
    01:00 +13°C° 0 mm 2 mps 751 mmHg 84%
    02:00 +13°C° 0 mm 2 mps 751 mmHg 87%
    03:00 +13°C° 0 mm 2 mps 751 mmHg 90%
    04:00 +12°C° 0 mm 2 mps 751 mmHg 93%
    05:00 +12°C° 0 mm 3 mps 751 mmHg 88%
    06:00 +14°C° 0 mm 3 mps 752 mmHg 83%
    07:00 +16°C° 0 mm 3 mps 752 mmHg 78%
    08:00 +17°C° 0 mm 4 mps 752 mmHg 69%
    09:00 +18°C° 0 mm 4 mps 752 mmHg 59%
    10:00 +19°C° 0 mm 4 mps 752 mmHg 50%
    11:00 +20°C° 0 mm 4 mps 752 mmHg 47%
    12:00 +21°C° 0 mm 5 mps 752 mmHg 44%
    13:00 +22°C° 0 mm 5 mps 752 mmHg 42%
    14:00 +22°C° 0 mm 4 mps 752 mmHg 43%
    15:00 +22°C° 0 mm 4 mps 752 mmHg 45%
    16:00 +22°C° 0 mm 4 mps 751 mmHg 47%
    17:00 +20°C° 0 mm 4 mps 751 mmHg 52%
    18:00 +19°C° 0 mm 3 mps 751 mmHg 58%
    19:00 +18°C° 0 mm 2 mps 751 mmHg 64%
    20:00 +16°C° 0 mm 2 mps 751 mmHg 70%
    21:00 +14°C° 0 mm 2 mps 752 mmHg 76%
    22:00 +12°C° 0 mm 3 mps 752 mmHg 82%
    23:00 +11°C° 0 mm 3 mps 752 mmHg 85%

    26 May, Sunday

    Time Temperature Precipitation Wind Pressure Humidity
    00:00 +11°C° 0 mm 3 mps 752 mmHg 89%
    01:00 +10°C° 0 mm 3 mps 752 mmHg 92%
    02:00 +9°C° 0 mm 3 mps 752 mmHg 94%
    03:00 +9°C° 0 mm 3 mps 752 mmHg 95%
    04:00 +8°C° 0 mm 2 mps 751 mmHg 96%
    05:00 +9°C° 0 mm 3 mps 751 mmHg 88%
    06:00 +11°C° 0 mm 3 mps 751 mmHg 80%
    07:00 +12°C° 0 mm 4 mps 751 mmHg 72%
    08:00 +14°C° 0 mm 4 mps 751 mmHg 66%
    09:00 +15°C° 0 mm 4 mps 751 mmHg 60%
    10:00 +17°C° 0 mm 5 mps 751 mmHg 55%
    11:00 +19°C° 0.1 mm 5 mps 750 mmHg 54%
    12:00 +19°C° 0.1 mm 6 mps 750 mmHg 53%
    13:00 +20°C° 0.1 mm 6 mps 750 mmHg 52%
    14:00 +20°C° 0 mm 6 mps 750 mmHg 53%
    15:00 +19°C° 0 mm 5 mps 750 mmHg 54%
    16:00 +19°C° 0 mm 5 mps 750 mmHg 54%
    17:00 +18°C° 0 mm 4 mps 750 mmHg 58%
    18:00 +17°C° 0 mm 3 mps 750 mmHg 62%
    19:00 +17°C° 0 mm 3 mps 750 mmHg 67%
    20:00 +15°C° 0 mm 2 mps 750 mmHg 72%
    21:00 +14°C° 0 mm 2 mps 750 mmHg 78%
    22:00 +12°C° 0 mm 1 mps 750 mmHg 83%
    23:00 +13°C° 0 mm 2 mps 750 mmHg 83%

    27 May, Monday

    Time Temperature Precipitation Wind Pressure Humidity
    00:00 +13°C° 0 mm 2 mps 750 mmHg 82%
    01:00 +14°C° 0 mm 2 mps 750 mmHg 81%
    02:00 +13°C° 0 mm 2 mps 750 mmHg 84%
    03:00 +12°C° 0 mm 2 mps 749 mmHg 88%
    04:00 +12°C° 0 mm 2 mps 749 mmHg 91%
    05:00 +13°C° 0 mm 3 mps 748 mmHg 83%
    06:00 +16°C° 0 mm 3 mps 748 mmHg 76%
    07:00 +17°C° 0 mm 3 mps 748 mmHg 68%
    08:00 +19°C° 0 mm 4 mps 748 mmHg 63%
    09:00 +21°C° 0 mm 4 mps 747 mmHg 58%
    10:00 +23°C° 0 mm 4 mps 747 mmHg 52%
    11:00 +23°C° 0 mm 5 mps 747 mmHg 50%
    12:00 +25°C° 0 mm 5 mps 746 mmHg 47%
    13:00 +26°C° 0 mm 5 mps 746 mmHg 45%
    14:00 +26°C° 0.4 mm 4 mps 745 mmHg 50%
    15:00 +25°C° 0.4 mm 4 mps 745 mmHg 54%
    16:00 +25°C° 0.4 mm 4 mps 745 mmHg 59%
    17:00 +22°C° 0.5 mm 3 mps 745 mmHg 67%
    18:00 +21°C° 0.5 mm 2 mps 744 mmHg 74%
    19:00 +21°C° 0.5 mm 1 mps 744 mmHg 82%
    20:00 +19°C° 0.2 mm 1 mps 744 mmHg 85%
    21:00 +18°C° 0.2 mm 1 mps 744 mmHg 87%
    22:00 +16°C° 0.2 mm 1 mps 744 mmHg 90%
    23:00 +16°C° 0.1 mm 1 mps 744 mmHg 91%

    28 May, Tuesday

    Time Temperature Precipitation Wind Pressure Humidity
    00:00 +16°C° 0.1 mm 1 mps 744 mmHg 92%
    01:00 +14°C° 0.1 mm 0 mps 744 mmHg 93%
    02:00 +14°C° 0.7 mm 0 mps 744 mmHg 94%
    03:00 +15°C° 0.7 mm 1 mps 743 mmHg 96%
    04:00 +15°C° 0.7 mm 1 mps 743 mmHg 97%
    05:00 +15°C° 1 mm 1 mps 743 mmHg 96%
    06:00 +16°C° 1 mm 1 mps 743 mmHg 96%
    07:00 +16°C° 1 mm 1 mps 743 mmHg 96%
    08:00 +18°C° 0.6 mm 1 mps 743 mmHg 93%
    09:00 +19°C° 0.6 mm 1 mps 743 mmHg 90%
    10:00 +19°C° 0.6 mm 1 mps 743 mmHg 87%
    11:00 +20°C° 1.4 mm 1 mps 743 mmHg 85%
    12:00 +21°C° 1.4 mm 1 mps 743 mmHg 82%
    13:00 +22°C° 1.4 mm 1 mps 743 mmHg 80%
    14:00 +22°C° 1.5 mm 1 mps 743 mmHg 79%
    15:00 +22°C° 1.5 mm 1 mps 743 mmHg 78%
    16:00 +22°C° 1.5 mm 1 mps 743 mmHg 77%
    17:00 +21°C° 1 mm 1 mps 743 mmHg 81%
    18:00 +20°C° 1 mm 1 mps 743 mmHg 85%
    19:00 +20°C° 1 mm 1 mps 743 mmHg 89%
    20:00 +19°C° 0.8 mm 1 mps 743 mmHg 91%
    21:00 +17°C° 0.8 mm 2 mps 743 mmHg 92%
    22:00 +16°C° 0.8 mm 2 mps 744 mmHg 94%
    23:00 +16°C° 0.4 mm 2 mps 744 mmHg 95%
    Show more